カタログに戻る

COSMOS 2310

運用中軍事PO
NORAD 23526·PAYLOAD·🇷🇺 Russia

打ち上げ Mar 21, 1995 から Plesetsk Cosmodrome

Loading…

次のパス (今後24時間)

TLE

最新Source: Space-Track

元期: Sep 14, 2026, 23:11 UTC

1 23526U 95012A   26257.96614214  .00000033  00000-0  19143-4 0  9998
2 23526  82.9421  82.6861 0023345  46.9701 106.6182 13.72340866576238

AllMySatでCOSMOS 2310をリアルタイム追跡

Download on the App Store